Time,TemperatureF,DewpointF,PressureIn,WindDirection,WindDirectionDegrees,WindSpeedMPH,WindSpeedGustMPH,Humidity,HourlyPrecipIn,Conditions,Clouds,dailyrainin,SolarRadiationWatts/m^2,SoftwareType,DateUTC
2013-02-04 00:01:00,33.0,32.0,-100.00,ENE,62,0.0,1.0,98,0.00,,,0.00,1.000000,,2013-02-04 08:01:00,
2013-02-04 00:10:00,34.0,34.0,-100.00,SE,127,0.0,3.0,98,0.00,,,-99.99,1.000000,,2013-02-04 08:10:00,
2013-02-04 00:42:00,34.0,34.0,-100.00,SE,127,0.0,3.0,98,0.00,,,-99.99,1.000000,,2013-02-04 08:42:00,
2013-02-04 00:52:00,34.0,34.0,-100.00,SE,127,0.0,3.0,98,0.00,,,-99.99,1.000000,,2013-02-04 08:52:00,
2013-02-04 01:01:00,34.0,34.0,-100.00,SE,127,0.0,3.0,98,0.00,,,-99.99,1.000000,,2013-02-04 09:01:00,
2013-02-04 01:10:00,33.0,32.0,-100.00,East,83,0.0,2.0,98,0.00,,,0.00,1.000000,,2013-02-04 09:10:00,
2013-02-04 01:42:00,33.0,32.0,-100.00,East,83,0.0,2.0,98,0.00,,,0.00,1.000000,,2013-02-04 09:42:00,
2013-02-04 01:52:00,33.0,32.0,-100.00,East,83,0.0,2.0,98,0.00,,,0.00,1.000000,,2013-02-04 09:52:00,
2013-02-04 02:01:00,33.0,32.0,-100.00,East,83,0.0,2.0,98,0.00,,,0.00,1.000000,,2013-02-04 10:01:00,
2013-02-04 02:10:00,34.0,34.0,-100.00,SSE,166,1.0,2.0,98,0.00,,,0.00,1.000000,,2013-02-04 10:10:00,
2013-02-04 02:42:00,34.0,34.0,-100.00,SSE,166,1.0,2.0,98,0.00,,,0.00,1.000000,,2013-02-04 10:42:00,
2013-02-04 02:52:00,34.0,34.0,-100.00,SSE,166,1.0,2.0,98,0.00,,,0.00,1.000000,,2013-02-04 10:52:00,
2013-02-04 03:01:00,34.0,34.0,-100.00,SSE,166,1.0,2.0,98,0.00,,,0.00,1.000000,,2013-02-04 11:01:00,
2013-02-04 03:10:00,34.0,34.0,-100.00,East,98,0.0,2.0,98,0.00,,,0.00,1.000000,,2013-02-04 11:10:00,
2013-02-04 03:33:00,34.0,34.0,-100.00,East,98,0.0,2.0,98,0.00,,,0.00,1.000000,,2013-02-04 11:33:00,
2013-02-04 03:42:00,34.0,34.0,-100.00,East,98,0.0,2.0,98,0.00,,,0.00,1.000000,,2013-02-04 11:42:00,
2013-02-04 03:52:00,34.0,34.0,-100.00,East,98,0.0,2.0,98,0.00,,,0.00,1.000000,,2013-02-04 11:52:00,
2013-02-04 04:02:00,34.0,34.0,-100.00,East,98,0.0,2.0,98,0.00,,,0.00,1.000000,,2013-02-04 12:02:00,
2013-02-04 04:10:00,34.0,34.0,-100.00,ESE,120,1.0,4.0,99,0.00,,,0.00,1.000000,,2013-02-04 12:10:00,
2013-02-04 04:33:00,34.0,34.0,-100.00,ESE,120,1.0,4.0,99,0.00,,,0.00,1.000000,,2013-02-04 12:33:00,
2013-02-04 04:42:00,34.0,34.0,-100.00,ESE,120,1.0,4.0,99,0.00,,,0.00,1.000000,,2013-02-04 12:42:00,
2013-02-04 04:53:00,34.0,34.0,-100.00,ESE,120,1.0,4.0,99,0.00,,,0.00,1.000000,,2013-02-04 12:53:00,
2013-02-04 05:02:00,34.0,34.0,-100.00,ESE,120,1.0,4.0,99,0.00,,,0.00,1.000000,,2013-02-04 13:02:00,
2013-02-04 05:10:00,34.0,34.0,-100.00,ENE,68,0.0,3.0,99,0.00,,,0.00,1.000000,,2013-02-04 13:10:00,
2013-02-04 05:33:00,34.0,34.0,-100.00,ENE,68,0.0,3.0,99,0.00,,,0.00,1.000000,,2013-02-04 13:33:00,
2013-02-04 05:42:00,34.0,34.0,-100.00,ENE,68,0.0,3.0,99,0.00,,,0.00,1.000000,,2013-02-04 13:42:00,
2013-02-04 05:52:00,34.0,34.0,-100.00,ENE,68,0.0,3.0,99,0.00,,,0.00,1.000000,,2013-02-04 13:52:00,
2013-02-04 06:02:00,34.0,34.0,-100.00,ENE,68,0.0,3.0,99,0.00,,,0.00,1.000000,,2013-02-04 14:02:00,
2013-02-04 06:10:00,33.0,33.0,-100.00,NE,44,0.0,4.0,99,0.00,,,0.00,1.000000,,2013-02-04 14:10:00,
2013-02-04 06:33:00,33.0,33.0,-100.00,NE,44,0.0,4.0,99,0.00,,,0.00,1.000000,,2013-02-04 14:33:00,
2013-02-04 06:42:00,33.0,33.0,-100.00,NE,44,0.0,4.0,99,0.00,,,0.00,1.000000,,2013-02-04 14:42:00,
2013-02-04 06:52:00,33.0,33.0,-100.00,NE,44,0.0,4.0,99,0.00,,,0.00,1.000000,,2013-02-04 14:52:00,
2013-02-04 07:03:00,33.0,33.0,-100.00,NE,44,0.0,4.0,99,0.00,,,0.00,1.000000,,2013-02-04 15:03:00,
2013-02-04 07:10:00,33.0,32.0,-100.00,East,81,0.0,2.0,98,0.00,,,0.00,1.000000,,2013-02-04 15:10:00,
2013-02-04 07:33:00,33.0,32.0,-100.00,East,81,0.0,2.0,98,0.00,,,0.00,1.000000,,2013-02-04 15:33:00,
2013-02-04 07:43:00,33.0,32.0,-100.00,East,81,0.0,2.0,98,0.00,,,0.00,1.000000,,2013-02-04 15:43:00,
2013-02-04 07:52:00,33.0,32.0,-100.00,East,81,0.0,2.0,98,0.00,,,0.00,1.000000,,2013-02-04 15:52:00,
2013-02-04 08:02:00,33.0,32.0,-100.00,East,81,0.0,2.0,98,0.00,,,0.00,1.000000,,2013-02-04 16:02:00,
2013-02-04 09:10:00,34.0,34.0,-100.00,SE,132,1.0,3.0,98,-99.99,,,-99.99,69.000000,,2013-02-04 17:10:00,
2013-02-04 09:42:00,34.0,34.0,-100.00,SE,132,1.0,3.0,98,-99.99,,,-99.99,69.000000,,2013-02-04 17:42:00,
2013-02-04 09:52:00,34.0,34.0,-100.00,SE,132,1.0,3.0,98,-99.99,,,-99.99,69.000000,,2013-02-04 17:52:00,
2013-02-04 10:03:00,34.0,34.0,-100.00,SE,132,1.0,3.0,98,-99.99,,,-99.99,69.000000,,2013-02-04 18:03:00,
2013-02-04 10:10:00,39.0,38.0,-100.00,SSE,149,0.0,4.0,97,0.00,,,0.00,158.000000,,2013-02-04 18:10:00,
2013-02-04 10:32:00,39.0,38.0,-100.00,SSE,149,0.0,4.0,97,0.00,,,0.00,158.000000,,2013-02-04 18:32:00,
2013-02-04 10:42:00,39.0,38.0,-100.00,SSE,149,0.0,4.0,97,0.00,,,0.00,158.000000,,2013-02-04 18:42:00,
2013-02-04 10:52:00,39.0,38.0,-100.00,SSE,149,0.0,4.0,97,0.00,,,0.00,158.000000,,2013-02-04 18:52:00,
2013-02-04 11:01:00,39.0,38.0,-100.00,SSE,149,0.0,4.0,97,0.00,,,0.00,158.000000,,2013-02-04 19:01:00,
2013-02-04 11:10:00,44.0,39.0,-100.00,ESE,122,0.0,0.0,84,0.00,,,0.00,205.000000,,2013-02-04 19:10:00,
2013-02-04 11:42:00,44.0,39.0,-100.00,ESE,122,0.0,0.0,84,0.00,,,0.00,205.000000,,2013-02-04 19:42:00,
2013-02-04 11:52:00,44.0,39.0,-100.00,ESE,122,0.0,0.0,84,0.00,,,0.00,205.000000,,2013-02-04 19:52:00,
2013-02-04 12:01:00,44.0,39.0,-100.00,ESE,122,0.0,0.0,84,0.00,,,0.00,205.000000,,2013-02-04 20:01:00,
2013-02-04 13:10:00,51.0,42.0,-100.00,WSW,239,0.0,3.0,72,-99.99,,,0.00,276.000000,,2013-02-04 21:10:00,
2013-02-04 13:32:00,51.0,42.0,-100.00,WSW,239,0.0,3.0,72,-99.99,,,0.00,276.000000,,2013-02-04 21:32:00,
2013-02-04 13:43:00,51.0,42.0,-100.00,WSW,239,0.0,3.0,72,-99.99,,,0.00,276.000000,,2013-02-04 21:43:00,
2013-02-04 13:52:00,51.0,42.0,-100.00,WSW,239,0.0,3.0,72,-99.99,,,0.00,276.000000,,2013-02-04 21:52:00,
2013-02-04 14:02:00,51.0,42.0,-100.00,WSW,239,0.0,3.0,72,-99.99,,,0.00,276.000000,,2013-02-04 22:02:00,
2013-02-04 14:10:00,53.0,39.0,-100.00,ENE,67,0.0,4.0,59,0.00,,,0.00,300.000000,,2013-02-04 22:10:00,
2013-02-04 14:33:00,53.0,39.0,-100.00,ENE,67,0.0,4.0,59,0.00,,,0.00,300.000000,,2013-02-04 22:33:00,
2013-02-04 14:42:00,53.0,39.0,-100.00,ENE,67,0.0,4.0,59,0.00,,,0.00,300.000000,,2013-02-04 22:42:00,
2013-02-04 14:52:00,53.0,39.0,-100.00,ENE,67,0.0,4.0,59,0.00,,,0.00,300.000000,,2013-02-04 22:52:00,
2013-02-04 15:01:00,53.0,39.0,-100.00,ENE,67,0.0,4.0,59,0.00,,,0.00,300.000000,,2013-02-04 23:01:00,
2013-02-04 15:10:00,53.0,44.0,-100.00,SSW,205,1.0,3.0,72,0.00,,,0.00,285.000000,,2013-02-04 23:10:00,
2013-02-04 15:32:00,53.0,44.0,-100.00,SSW,205,1.0,3.0,72,0.00,,,0.00,285.000000,,2013-02-04 23:32:00,
2013-02-04 15:42:00,53.0,44.0,-100.00,SSW,205,1.0,3.0,72,0.00,,,0.00,285.000000,,2013-02-04 23:42:00,
2013-02-04 15:52:00,53.0,44.0,-100.00,SSW,205,1.0,3.0,72,0.00,,,0.00,285.000000,,2013-02-04 23:52:00,
2013-02-04 16:01:00,53.0,44.0,-100.00,SSW,205,1.0,3.0,72,0.00,,,0.00,285.000000,,2013-02-05 00:01:00,
2013-02-04 16:10:00,46.0,41.0,-100.00,SSW,193,2.0,7.0,83,0.00,,,-99.99,105.000000,,2013-02-05 00:10:00,
2013-02-04 16:42:00,46.0,41.0,-100.00,SSW,193,2.0,7.0,83,0.00,,,-99.99,105.000000,,2013-02-05 00:42:00,
2013-02-04 16:52:00,46.0,41.0,-100.00,SSW,193,2.0,7.0,83,0.00,,,-99.99,105.000000,,2013-02-05 00:52:00,
2013-02-04 17:01:00,46.0,41.0,-100.00,SSW,193,2.0,7.0,83,0.00,,,-99.99,105.000000,,2013-02-05 01:01:00,
2013-02-04 17:10:00,45.0,40.0,-100.00,North,359,1.0,8.0,82,0.00,,,0.00,17.000000,,2013-02-05 01:10:00,
2013-02-04 17:42:00,45.0,40.0,-100.00,North,359,1.0,8.0,82,0.00,,,0.00,17.000000,,2013-02-05 01:42:00,
2013-02-04 17:52:00,45.0,40.0,-100.00,North,359,1.0,8.0,82,0.00,,,0.00,17.000000,,2013-02-05 01:52:00,
2013-02-04 18:01:00,45.0,40.0,-100.00,North,359,1.0,8.0,82,0.00,,,0.00,17.000000,,2013-02-05 02:01:00,
2013-02-04 18:10:00,40.0,38.0,-100.00,NE,43,0.0,3.0,93,0.00,,,0.00,1.000000,,2013-02-05 02:10:00,
2013-02-04 18:32:00,40.0,38.0,-100.00,NE,43,0.0,3.0,93,0.00,,,0.00,1.000000,,2013-02-05 02:32:00,
2013-02-04 18:42:00,40.0,38.0,-100.00,NE,43,0.0,3.0,93,0.00,,,0.00,1.000000,,2013-02-05 02:42:00,
2013-02-04 18:52:00,40.0,38.0,-100.00,NE,43,0.0,3.0,93,0.00,,,0.00,1.000000,,2013-02-05 02:52:00,
2013-02-04 19:01:00,40.0,38.0,-100.00,NE,43,0.0,3.0,93,0.00,,,0.00,1.000000,,2013-02-05 03:01:00,
2013-02-04 19:10:00,42.0,39.0,-100.00,NNE,12,3.0,5.0,89,0.00,,,-99.99,1.000000,,2013-02-05 03:10:00,
2013-02-04 19:32:00,42.0,39.0,-100.00,NNE,12,3.0,5.0,89,0.00,,,-99.99,1.000000,,2013-02-05 03:32:00,
2013-02-04 19:42:00,42.0,39.0,-100.00,NNE,12,3.0,5.0,89,0.00,,,-99.99,1.000000,,2013-02-05 03:42:00,
2013-02-04 19:52:00,42.0,39.0,-100.00,NNE,12,3.0,5.0,89,0.00,,,-99.99,1.000000,,2013-02-05 03:52:00,
2013-02-04 20:01:00,42.0,39.0,-100.00,NNE,12,3.0,5.0,89,0.00,,,-99.99,1.000000,,2013-02-05 04:01:00,
2013-02-04 20:10:00,44.0,38.0,-100.00,North,353,3.0,6.0,78,0.00,,,0.00,1.000000,,2013-02-05 04:10:00,
2013-02-04 20:32:00,44.0,38.0,-100.00,North,353,3.0,6.0,78,0.00,,,0.00,1.000000,,2013-02-05 04:32:00,
2013-02-04 20:42:00,44.0,38.0,-100.00,North,353,3.0,6.0,78,0.00,,,0.00,1.000000,,2013-02-05 04:42:00,
2013-02-04 20:52:00,44.0,38.0,-100.00,North,353,3.0,6.0,78,0.00,,,0.00,1.000000,,2013-02-05 04:52:00,
2013-02-04 21:02:00,44.0,38.0,-100.00,North,353,3.0,6.0,78,0.00,,,0.00,1.000000,,2013-02-05 05:02:00,
2013-02-04 21:10:00,42.0,37.0,-100.00,NNW,339,1.0,5.0,83,0.00,,,0.00,1.000000,,2013-02-05 05:10:00,
2013-02-04 21:32:00,42.0,37.0,-100.00,NNW,339,1.0,5.0,83,0.00,,,0.00,1.000000,,2013-02-05 05:32:00,
2013-02-04 21:42:00,42.0,37.0,-100.00,NNW,339,1.0,5.0,83,0.00,,,0.00,1.000000,,2013-02-05 05:42:00,
2013-02-04 21:52:00,42.0,37.0,-100.00,NNW,339,1.0,5.0,83,0.00,,,0.00,1.000000,,2013-02-05 05:52:00,
2013-02-04 22:01:00,42.0,37.0,-100.00,NNW,339,1.0,5.0,83,0.00,,,0.00,1.000000,,2013-02-05 06:01:00,
2013-02-04 22:10:00,39.0,37.0,-100.00,NNE,18,0.0,3.0,93,0.00,,,-99.99,1.000000,,2013-02-05 06:10:00,
2013-02-04 22:32:00,39.0,37.0,-100.00,NNE,18,0.0,3.0,93,0.00,,,-99.99,1.000000,,2013-02-05 06:32:00,
2013-02-04 22:42:00,39.0,37.0,-100.00,NNE,18,0.0,3.0,93,0.00,,,-99.99,1.000000,,2013-02-05 06:42:00,
2013-02-04 22:52:00,39.0,37.0,-100.00,NNE,18,0.0,3.0,93,0.00,,,-99.99,1.000000,,2013-02-05 06:52:00,
2013-02-04 23:01:00,39.0,37.0,-100.00,NNE,18,0.0,3.0,93,0.00,,,-99.99,1.000000,,2013-02-05 07:01:00,
2013-02-04 23:10:00,36.0,35.0,-100.00,NE,53,0.0,2.0,96,0.00,,,0.00,1.000000,,2013-02-05 07:10:00,
2013-02-04 23:32:00,36.0,35.0,-100.00,NE,53,0.0,2.0,96,0.00,,,0.00,1.000000,,2013-02-05 07:32:00,
2013-02-04 23:42:00,36.0,35.0,-100.00,NE,53,0.0,2.0,96,0.00,,,0.00,1.000000,,2013-02-05 07:42:00,
2013-02-04 23:52:00,36.0,35.0,-100.00,NE,53,0.0,2.0,96,0.00,,,0.00,1.000000,,2013-02-05 07:52:00,